Hoquiam, WA

12:19 PM PDT on August 24, 2016 (GMT -0700)
Bowerman

Weather History for KHQM - August, 2013

Change the Weather History Date:

Monday, August 26, 2013

  Actual Average Record
Temperature  
Mean Temperature 57 °F 61 °F  
Max Temperature 66 °F 68 °F 82 °F (1967)
Min Temperature 48 °F 53 °F 41 °F (1955)
Degree Days  
Heating Degree Days 8 4  
Month to date heating degree days 99 104  
Since 1 June heating degree days 421 514  
Cooling Degree Days 0 0  
Month to date cooling degree days 0 0  
Year to date cooling degree days 11 9  
Since 1 June cooling degree days 8 8  
Growing Degree Days 7 (Base 50)    
Moisture  
Dew Point 54 °F    
Average Humidity 82    
Maximum Humidity 100    
Minimum Humidity 63    
Precipitation  
Precipitation 0.08 in 0.06 in 1.39 in (1953)
Month to date precipitation 0.82 1.00  
Year to date precipitation 33.38 37.30  
Sea Level Pressure  
Sea Level Pressure 29.92 in    
Wind  
Wind Speed 7 mph (SE)    
Max Wind Speed 20 mph    
Max Gust Speed 24 mph    
Visibility 9 miles    
Events Rain    
T = Trace of Precipitation, MM = Missing Value Source: NWS Daily Summary

Daily Weather History Graph

Daily Weather History Graph

Search for Another Location

Airport or City:

Trip Planner

Search our weather history database for the weather conditions in past years. The results will help you decide how hot, cold, wet, or windy it might be!

Date:

Astronomy

Aug. 26, 2013 Rise Set
Actual Time 6:27 AM PDT 8:06 PM PDT
Civil Twilight 5:55 AM PDT 8:38 PM PDT
Nautical Twilight 5:16 AM PDT 9:16 PM PDT
Astronomical Twilight 4:34 AM PDT 9:59 PM PDT
Moon 10:53 PM PDT (8/26) 1:01 PM PDT (8/26)
Length of Visible Light 14h 42m
Length of Day
13h 38m
Waning Gibbous, 65% of the Moon is Illuminated
Aug 26
Waning Gibbous
Aug 28
Last Quarter
Sep 5
New
Sep 12
First Quarter
Sep 19
Full

Hourly Weather History & Observations

Time (PDT) Temp. Dew Point Humidity Pressure Visibility Wind Dir Wind Speed Gust Speed Precip Events Conditions
12:53 AM 55.0 °F 53.1 °F 93% 29.92 in 10.0 mi Calm Calm - N/A   Clear
1:53 AM 52.0 °F 51.1 °F 97% 29.91 in 10.0 mi Calm Calm - N/A   Clear
2:53 AM 52.0 °F 51.1 °F 97% 29.91 in 10.0 mi NE 3.5 mph - N/A   Clear
3:04 AM 51.8 °F 51.8 °F 100% 29.91 in 10.0 mi ENE 3.5 mph - N/A   Partly Cloudy
3:53 AM 48.9 °F 48.0 °F 97% 29.92 in 9.0 mi Calm Calm - N/A   Clear
4:38 AM 51.8 °F 50.0 °F 94% 29.90 in 10.0 mi NE 5.8 mph - N/A   Mostly Cloudy
4:53 AM 50.0 °F 50.0 °F 100% 29.92 in 9.0 mi ENE 4.6 mph - N/A   Overcast
5:14 AM 51.8 °F 50.0 °F 94% 29.90 in 10.0 mi ENE 4.6 mph - N/A   Overcast
5:53 AM 50.0 °F 48.9 °F 96% 29.91 in 10.0 mi ENE 4.6 mph - N/A   Partly Cloudy
6:51 AM 51.8 °F 50.0 °F 94% 29.90 in 9.0 mi Calm Calm - N/A   Mostly Cloudy
6:53 AM 51.1 °F 50.0 °F 96% 29.91 in 9.0 mi Calm Calm - N/A   Mostly Cloudy
7:33 AM 53.6 °F 51.8 °F 94% 29.91 in 10.0 mi ENE 3.5 mph - N/A   Overcast
7:53 AM 54.0 °F 52.0 °F 93% 29.92 in 10.0 mi Calm Calm - N/A   Overcast
8:53 AM 55.9 °F 55.0 °F 97% 29.91 in 7.0 mi East 3.5 mph - N/A   Overcast
9:36 AM 57.2 °F 55.4 °F 94% 29.89 in 8.0 mi ESE 3.5 mph - N/A   Overcast
9:53 AM 55.9 °F 55.0 °F 97% 29.90 in 10.0 mi Calm Calm - N/A   Mostly Cloudy
10:01 AM 57.2 °F 55.4 °F 94% 29.89 in 10.0 mi South 3.5 mph - N/A   Mostly Cloudy
10:21 AM 57.2 °F 55.4 °F 94% 29.89 in 10.0 mi Calm Calm - N/A   Overcast
10:53 AM 61.0 °F 57.0 °F 87% 29.90 in 10.0 mi South 3.5 mph - N/A   Mostly Cloudy
11:53 AM 66.0 °F 55.9 °F 70% 29.90 in 10.0 mi Variable 3.5 mph - N/A   Scattered Clouds
12:53 PM 64.9 °F 57.0 °F 75% 29.91 in 10.0 mi SW 10.4 mph - N/A   Mostly Cloudy
1:53 PM 64.0 °F 52.0 °F 65% 29.92 in 10.0 mi South 15.0 mph 23.0 mph N/A   Overcast
2:53 PM 63.0 °F 54.0 °F 72% 29.91 in 10.0 mi SSE 11.5 mph - 0.01 in   Overcast
3:53 PM 64.0 °F 55.0 °F 73% 29.91 in 10.0 mi SE 9.2 mph - N/A   Overcast
4:23 PM 60.8 °F 55.4 °F 82% 29.92 in 2.5 mi SSE 11.5 mph - 0.04 in Rain Light Rain
4:48 PM 59.0 °F 57.2 °F 94% 29.92 in 2.0 mi SSE 10.4 mph 19.6 mph 0.06 in Rain Light Rain
4:53 PM 59.0 °F 57.0 °F 93% 29.93 in 2.0 mi SE 10.4 mph - 0.07 in Rain Light Rain
5:00 PM 59.0 °F 57.2 °F 94% 29.92 in 2.5 mi SE 12.7 mph - 0.00 in Rain Light Rain
5:13 PM 59.0 °F 55.4 °F 88% 29.92 in 4.0 mi SE 15.0 mph - 0.00 in   Overcast
5:27 PM 59.0 °F 55.4 °F 88% 29.92 in 9.0 mi SE 11.5 mph 21.9 mph 0.00 in   Overcast
5:53 PM 59.0 °F 55.9 °F 90% 29.93 in 7.0 mi SE 13.8 mph - 0.00 in   Overcast
6:34 PM 60.8 °F 57.2 °F 88% 29.91 in 10.0 mi SE 12.7 mph - N/A   Overcast
6:53 PM 60.1 °F 57.0 °F 90% 29.92 in 10.0 mi SE 12.7 mph - N/A   Overcast
7:53 PM 61.0 °F 57.9 °F 90% 29.93 in 10.0 mi SSE 11.5 mph - N/A   Overcast
8:22 PM 60.8 °F 57.2 °F 88% 29.92 in 10.0 mi SSE 11.5 mph - N/A   Overcast
8:53 PM 61.0 °F 57.9 °F 90% 29.94 in 10.0 mi SSE 11.5 mph - N/A   Overcast
9:53 PM 61.0 °F 59.0 °F 93% 29.95 in 10.0 mi SSE 10.4 mph - N/A   Overcast
10:53 PM 61.0 °F 59.0 °F 93% 29.96 in 10.0 mi SSE 9.2 mph - N/A   Overcast
11:53 PM 60.1 °F 59.0 °F 96% 29.96 in 5.0 mi East 6.9 mph - N/A   Overcast